This demonstration page uses our WeatherBlox Daily Observations layout. Learn more.

Left ArrowRight Arrow

41.86663, -103.66717

Hourly Observations for February 27, 2015

Temp ( °F °C ) Dew Point ( °F °C ) Humidity (%) Winds ( mph kmh ) Pressure ( in mb ) Visibility ( mi km ) Precip ( " mm )
12:26 am 00:26 Mostly Cloudy 7 -13.9 2 -16.7 80 80 SE 13 20 30.62 1037 10 16.0934 N/A
12:53 am 00:53 Cloudy with Haze 7 -13.9 1 -17.2 76 76 ESE 13 20 30.45 1031 6 9.65604 N/A
1:53 am 01:53 Cloudy 8 -13.3 N/A 69 69 ESE 16 26 30.43 1031 10 16.0934 N/A
2:53 am 02:53 Cloudy with Light Snow 7 -13.9 1 -17.2 76 76 SE 14 22 30.41 1030 4 6.43736 N/A
3:53 am 03:53 Cloudy 7 -13.9 N/A 73 73 ESE 15 24 30.4 1030 10 16.0934 N/A
4:53 am 04:53 Cloudy 7 -13.9 -1 -18.3 70 70 ESE 14 22 30.4 1030 10 16.0934 N/A
5:53 am 05:53 Cloudy with Light Snow 7 -13.9 N/A 73 73 SE 13 20 30.4 1029 6 9.65604 N/A
6:53 am 06:53 Cloudy 7 -13.9 1 -17.2 76 76 ESE 14 22 30.39 1029 10 16.0934 N/A
7:15 am 07:15 Cloudy 7 -13.9 2 -16.7 80 80 ESE 18 30 30.53 1034 10 16.0934 N/A
7:53 am 07:53 Cloudy 8 -13.3 2 -16.7 76 76 ESE 17 28 30.38 1029 10 16.0934 N/A
8:53 am 08:53 Cloudy 11 -11.7 4 -15.6 73 73 SE 15 24 30.36 1028 9 14.48406 N/A
9:42 am 09:42 Cloudy 16 -9 7 -14 67 67 SE 17 28 30.39 1029 9 14.48406 N/A
9:53 am 09:53 Cloudy 15 -9.4 6 -14.4 67 67 SE 15 24 30.33 1027 9 14.48406 N/A
10:32 am 10:32 Cloudy 19 -7 7 -14 58 58 SSE 17 28 30.36 1028 10 16.0934 N/A
10:53 am 10:53 Cloudy 20 -6.7 8 -13.3 60 60 SSE 17 28 30.29 1026 10 16.0934 N/A
11:53 am 11:53 Cloudy 19 -7 7 -14 58 58 SSE 21 33 30.33 1027 10 16.0934 N/A
12:53 pm 12:53 Cloudy 22 -5.6 8 -13.3 55 55 S 22 35 30.22 1023 10 16.0934 N/A
1:53 pm 13:53 Windy with Snow Likely 23 -5 9 -12.8 55 55 S 23 37 30.19 1022 6 9.65604 N/A
2:53 pm 14:53 Cloudy 23 -5 8 -13.3 53 53 S 21 33 30.18 1022 10 16.0934 N/A
3:53 pm 15:53 Cloudy 23 -5 8 -13.3 53 53 S 23 37 30.17 1022 10 16.0934 N/A
4:53 pm 16:53 Mostly Cloudy 21 -6.1 7 -13.9 54 54 S 22 35 30.17 1022 10 16.0934 N/A
5:53 pm 17:53 Cloudy 20 -6.7 9 -12.8 62 62 S 14 22 30.18 1022 10 16.0934 N/A
6:53 pm 18:53 Cloudy 19 -7.2 9 -12.8 65 65 S 10 17 30.2 1023 10 16.0934 N/A
7:53 pm 19:53 Cloudy 18 -7.8 8 -13.3 65 65 SSE 14 22 30.19 1022 10 16.0934 N/A
8:40 pm 20:40 Cloudy 18 -8 9 -13 68 68 SSE 14 22 30.24 1024 10 16.0934 N/A
8:53 pm 20:53 Cloudy 17 -8.3 8 -13.3 68 68 SSE 16 26 30.19 1022 10 16.0934 N/A
9:53 pm 21:53 Cloudy 15 -9.4 7 -13.9 70 70 SSE 14 22 30.19 1022 10 16.0934 N/A
10:30 pm 22:30 Partly Cloudy 12 -11 7 -14 79 79 SSE 12 19 30.3 1026 10 16.0934 N/A
10:53 pm 22:53 Clear 13 -10.6 6 -14.4 74 74 SSE 12 19 30.16 1022 10 16.0934 N/A
11:53 pm 23:53 Clear 11 -11.7 5 -15 77 77 SE 8 13 30.16 1021 10 16.0934 N/A

Powered by AerisWeather